• En España
  • Lista de países
  • Para 7 días
  • Temperatura del agua
  • Mapa Satelital
  • El tiempo en el mapa
  • Informadores
  • user-avatar
    Iniciar sesión

    Tiempo cada hora Bikchuraevo

    Hoy, 21 Agosto, Martes

    Tiempo Temperatura Precipitaciones Viento Presión Humedad
    00:00 +16°C° 0,1 mm 2 mps 749 mmHg 88%
    01:00 +16°C° 0,1 mm 2 mps 749 mmHg 90%
    02:00 +16°C° 0,1 mm 2 mps 749 mmHg 92%
    03:00 +17°C° 0 mm 2 mps 749 mmHg 94%
    04:00 +17°C° 0 mm 2 mps 749 mmHg 93%
    05:00 +17°C° 0 mm 2 mps 749 mmHg 92%
    06:00 +18°C° 0 mm 2 mps 749 mmHg 91%
    07:00 +19°C° 0,1 mm 2 mps 749 mmHg 87%
    08:00 +20°C° 0,1 mm 2 mps 749 mmHg 82%
    09:00 +22°C° 0 mm 3 mps 749 mmHg 77%
    10:00 +24°C° 0,2 mm 3 mps 749 mmHg 72%
    11:00 +25°C° 0,2 mm 3 mps 748 mmHg 68%
    12:00 +26°C° 0,2 mm 4 mps 748 mmHg 64%
    13:00 +26°C° 0,1 mm 4 mps 748 mmHg 63%
    14:00 +26°C° 0,1 mm 4 mps 747 mmHg 62%
    15:00 +27°C° 0,1 mm 5 mps 747 mmHg 62%
    16:00 +26°C° 0,1 mm 4 mps 747 mmHg 66%
    17:00 +23°C° 0,1 mm 4 mps 747 mmHg 70%
    18:00 +22°C° 0,1 mm 3 mps 746 mmHg 75%
    19:00 +21°C° 0 mm 4 mps 746 mmHg 76%
    20:00 +20°C° 0 mm 4 mps 746 mmHg 78%
    21:00 +19°C° 0 mm 4 mps 745 mmHg 79%
    22:00 +19°C° 0 mm 4 mps 745 mmHg 77%
    23:00 +19°C° 0 mm 5 mps 745 mmHg 76%

    Mañana, 22 Agosto, Miércoles

    Tiempo Temperatura Precipitaciones Viento Presión Humedad
    00:00 +17°C° 0 mm 5 mps 744 mmHg 74%
    01:00 +17°C° 0 mm 5 mps 744 mmHg 73%
    02:00 +17°C° 0 mm 5 mps 744 mmHg 72%
    03:00 +16°C° 0 mm 5 mps 744 mmHg 71%
    04:00 +16°C° 0,1 mm 5 mps 744 mmHg 72%
    05:00 +16°C° 0,1 mm 5 mps 744 mmHg 73%
    06:00 +16°C° 0,1 mm 5 mps 743 mmHg 74%
    07:00 +16°C° 0,7 mm 5 mps 743 mmHg 78%
    08:00 +16°C° 0,7 mm 5 mps 743 mmHg 83%
    09:00 +17°C° 0,7 mm 4 mps 744 mmHg 87%
    10:00 +17°C° 1 mm 4 mps 744 mmHg 89%
    11:00 +17°C° 1 mm 4 mps 744 mmHg 90%
    12:00 +16°C° 1 mm 3 mps 744 mmHg 92%
    13:00 +17°C° 0,9 mm 3 mps 744 mmHg 87%
    14:00 +17°C° 0,9 mm 3 mps 744 mmHg 82%
    15:00 +18°C° 0,9 mm 2 mps 745 mmHg 78%
    16:00 +17°C° 0,3 mm 2 mps 745 mmHg 78%
    17:00 +17°C° 0,3 mm 2 mps 745 mmHg 79%
    18:00 +16°C° 0,3 mm 3 mps 746 mmHg 80%
    19:00 +14°C° 0,1 mm 3 mps 746 mmHg 82%
    20:00 +13°C° 0,1 mm 3 mps 747 mmHg 85%
    21:00 +12°C° 0,1 mm 3 mps 747 mmHg 87%
    22:00 +11°C° 0 mm 3 mps 747 mmHg 89%
    23:00 +11°C° 0 mm 3 mps 748 mmHg 91%

    Pasado mañana, 23 Agosto, Jueves

    Tiempo Temperatura Precipitaciones Viento Presión Humedad
    00:00 +10°C° 0 mm 3 mps 748 mmHg 92%
    01:00 +10°C° 0 mm 3 mps 748 mmHg 93%
    02:00 +9°C° 0 mm 3 mps 749 mmHg 94%
    03:00 +9°C° 0 mm 3 mps 749 mmHg 95%
    04:00 +9°C° 0 mm 3 mps 750 mmHg 94%
    05:00 +9°C° 0 mm 3 mps 750 mmHg 93%
    06:00 +10°C° 0 mm 4 mps 750 mmHg 92%
    07:00 +11°C° 0 mm 4 mps 751 mmHg 84%
    08:00 +12°C° 0 mm 5 mps 751 mmHg 77%
    09:00 +13°C° 0 mm 5 mps 751 mmHg 70%
    10:00 +14°C° 0 mm 6 mps 752 mmHg 66%
    11:00 +15°C° 0 mm 6 mps 752 mmHg 61%
    12:00 +15°C° 0 mm 6 mps 752 mmHg 57%
    13:00 +16°C° 0 mm 6 mps 752 mmHg 56%
    14:00 +16°C° 0 mm 6 mps 752 mmHg 56%
    15:00 +16°C° 0 mm 6 mps 752 mmHg 55%
    16:00 +15°C° 0 mm 5 mps 752 mmHg 60%
    17:00 +14°C° 0 mm 4 mps 753 mmHg 64%
    18:00 +14°C° 0 mm 3 mps 753 mmHg 69%
    19:00 +13°C° 0 mm 3 mps 753 mmHg 71%
    20:00 +12°C° 0 mm 3 mps 753 mmHg 72%
    21:00 +11°C° 0 mm 3 mps 753 mmHg 74%
    22:00 +11°C° 0 mm 3 mps 753 mmHg 73%
    23:00 +11°C° 0 mm 3 mps 754 mmHg 73%

    24 Agosto, Viernes

    Tiempo Temperatura Precipitaciones Viento Presión Humedad
    00:00 +11°C° 0 mm 3 mps 754 mmHg 72%
    01:00 +10°C° 0 mm 3 mps 754 mmHg 74%
    02:00 +10°C° 0 mm 3 mps 754 mmHg 76%
    03:00 +10°C° 0 mm 3 mps 754 mmHg 78%
    04:00 +10°C° 0 mm 3 mps 754 mmHg 77%
    05:00 +11°C° 0 mm 3 mps 753 mmHg 77%
    06:00 +11°C° 0 mm 4 mps 753 mmHg 77%
    07:00 +12°C° 0,1 mm 4 mps 753 mmHg 76%
    08:00 +13°C° 0,1 mm 5 mps 753 mmHg 76%
    09:00 +14°C° 0,1 mm 5 mps 753 mmHg 75%
    10:00 +15°C° 0,1 mm 5 mps 753 mmHg 73%
    11:00 +16°C° 0,1 mm 5 mps 753 mmHg 72%
    12:00 +17°C° 0,1 mm 5 mps 752 mmHg 70%
    13:00 +19°C° 0,1 mm 5 mps 753 mmHg 72%
    14:00 +19°C° 0,1 mm 4 mps 753 mmHg 74%
    15:00 +19°C° 0,1 mm 4 mps 753 mmHg 76%
    16:00 +18°C° 0 mm 3 mps 753 mmHg 79%
    17:00 +17°C° 0 mm 2 mps 753 mmHg 81%
    18:00 +17°C° 0 mm 2 mps 753 mmHg 84%
    19:00 +16°C° 0 mm 2 mps 753 mmHg 86%
    20:00 +16°C° 0 mm 2 mps 753 mmHg 87%
    21:00 +15°C° 0 mm 1 mps 753 mmHg 88%
    22:00 +15°C° 0 mm 1 mps 754 mmHg 90%
    23:00 +14°C° 0 mm 1 mps 754 mmHg 92%

    25 Agosto, Sábado

    Tiempo Temperatura Precipitaciones Viento Presión Humedad
    00:00 +13°C° 0 mm 1 mps 754 mmHg 94%
    01:00 +13°C° 0 mm 1 mps 754 mmHg 94%
    02:00 +13°C° 0 mm 1 mps 754 mmHg 95%
    03:00 +12°C° 0 mm 1 mps 754 mmHg 95%
    04:00 +13°C° 0 mm 1 mps 755 mmHg 95%
    05:00 +13°C° 0 mm 1 mps 755 mmHg 94%
    06:00 +13°C° 0 mm 1 mps 755 mmHg 93%
    07:00 +15°C° 0 mm 1 mps 755 mmHg 88%
    08:00 +18°C° 0 mm 1 mps 756 mmHg 83%
    09:00 +18°C° 0 mm 2 mps 756 mmHg 78%
    10:00 +19°C° 0 mm 2 mps 756 mmHg 74%
    11:00 +20°C° 0 mm 2 mps 756 mmHg 70%
    12:00 +21°C° 0 mm 2 mps 756 mmHg 66%
    13:00 +21°C° 0 mm 2 mps 756 mmHg 67%
    14:00 +21°C° 0 mm 2 mps 756 mmHg 67%
    15:00 +21°C° 0 mm 2 mps 756 mmHg 68%
    16:00 +21°C° 0 mm 1 mps 756 mmHg 72%
    17:00 +20°C° 0 mm 1 mps 756 mmHg 75%
    18:00 +20°C° 0 mm 1 mps 756 mmHg 79%
    19:00 +18°C° 0 mm 1 mps 756 mmHg 82%
    20:00 +16°C° 0 mm 1 mps 757 mmHg 85%
    21:00 +15°C° 0 mm 1 mps 757 mmHg 88%
    22:00 +15°C° 0 mm 1 mps 757 mmHg 89%
    23:00 +13°C° 0 mm 0 mps 757 mmHg 90%

    26 Agosto, Domingo

    Tiempo Temperatura Precipitaciones Viento Presión Humedad
    00:00 +13°C° 0 mm 0 mps 757 mmHg 90%
    01:00 +13°C° 0 mm 0 mps 757 mmHg 91%
    02:00 +12°C° 0 mm 0 mps 758 mmHg 91%
    03:00 +12°C° 0 mm 0 mps 758 mmHg 92%
    04:00 +13°C° 0 mm 0 mps 758 mmHg 91%
    05:00 +13°C° 0 mm 0 mps 758 mmHg 91%
    06:00 +14°C° 0 mm 0 mps 758 mmHg 90%
    07:00 +16°C° 0 mm 0 mps 759 mmHg 84%
    08:00 +17°C° 0 mm 0 mps 759 mmHg 79%
    09:00 +19°C° 0 mm 0 mps 759 mmHg 73%
    10:00 +20°C° 0 mm 0 mps 759 mmHg 69%
    11:00 +23°C° 0 mm 1 mps 758 mmHg 65%
    12:00 +24°C° 0 mm 1 mps 758 mmHg 61%
    13:00 +24°C° 0 mm 1 mps 758 mmHg 60%
    14:00 +24°C° 0 mm 1 mps 758 mmHg 59%
    15:00 +24°C° 0 mm 1 mps 758 mmHg 58%
    16:00 +23°C° 0 mm 1 mps 757 mmHg 63%
    17:00 +22°C° 0 mm 1 mps 757 mmHg 68%
    18:00 +21°C° 0 mm 1 mps 757 mmHg 73%
    19:00 +20°C° 0 mm 1 mps 757 mmHg 77%
    20:00 +19°C° 0 mm 1 mps 757 mmHg 81%
    21:00 +18°C° 0 mm 1 mps 757 mmHg 85%
    22:00 +18°C° 0 mm 1 mps 758 mmHg 86%
    23:00 +16°C° 0 mm 1 mps 758 mmHg 87%
    Mostrar más